TimeCDT,TemperatureF,Dew PointF,Humidity,Sea Level PressureIn,VisibilityMPH,Wind Direction,Wind SpeedMPH,Gust SpeedMPH,PrecipitationIn,Events,Conditions,WindDirDegrees,DateUTC
12:15 AM,46.4,44.6,93,29.76,4.0,NW,11.5,17.3,N/A,,Overcast,310,2013-10-31 05:15:00
12:35 AM,44.6,44.6,100,29.76,3.0,NW,8.1,13.8,N/A,,Overcast,310,2013-10-31 05:35:00
12:55 AM,44.6,42.8,93,29.77,6.0,NW,6.9,-,N/A,,Overcast,310,2013-10-31 05:55:00
1:15 AM,44.6,42.8,93,29.75,6.0,NW,5.8,-,N/A,,Overcast,320,2013-10-31 06:15:00
1:35 AM,44.6,42.8,93,29.72,5.0,North,8.1,-,N/A,,Overcast,350,2013-10-31 06:35:00
1:55 AM,44.6,42.8,93,29.70,3.0,North,9.2,-,N/A,,Overcast,10,2013-10-31 06:55:00
2:15 AM,44.6,42.8,93,29.72,2.5,NW,4.6,-,N/A,,Overcast,320,2013-10-31 07:15:00
2:35 AM,44.6,42.8,93,29.72,5.0,NNW,4.6,-,N/A,,Overcast,340,2013-10-31 07:35:00
2:55 AM,44.6,42.8,93,29.72,4.0,NW,4.6,-,N/A,,Overcast,310,2013-10-31 07:55:00
3:15 AM,44.6,42.8,93,29.73,5.0,NW,5.8,-,N/A,,Overcast,310,2013-10-31 08:15:00
3:35 AM,44.6,41.0,87,29.72,7.0,North,6.9,-,N/A,,Overcast,350,2013-10-31 08:35:00
3:55 AM,42.8,41.0,93,29.73,10.0,North,4.6,-,N/A,,Overcast,360,2013-10-31 08:55:00
4:15 AM,42.8,41.0,93,29.72,10.0,North,4.6,-,N/A,,Scattered Clouds,360,2013-10-31 09:15:00
4:35 AM,42.8,41.0,93,29.70,10.0,Variable,3.5,-,N/A,,Clear,0,2013-10-31 09:35:00
4:55 AM,41.0,39.2,93,29.67,10.0,North,4.6,-,N/A,,Clear,360,2013-10-31 09:55:00
5:15 AM,41.0,39.2,93,29.67,10.0,Calm,Calm,-,N/A,,Clear,0,2013-10-31 10:15:00
5:35 AM,41.0,39.2,93,29.68,10.0,Calm,Calm,-,N/A,,Scattered Clouds,0,2013-10-31 10:35:00
5:55 AM,41.0,39.2,93,29.68,10.0,Calm,Calm,-,N/A,,Overcast,0,2013-10-31 10:55:00
6:15 AM,41.0,41.0,100,29.70,10.0,West,3.5,-,N/A,,Overcast,260,2013-10-31 11:15:00
6:35 AM,41.0,41.0,100,29.70,8.0,WNW,4.6,-,N/A,,Overcast,300,2013-10-31 11:35:00
6:55 AM,41.0,41.0,100,29.70,9.0,NW,5.8,-,N/A,,Overcast,310,2013-10-31 11:55:00
7:15 AM,41.0,41.0,100,29.68,9.0,Calm,Calm,-,N/A,,Mostly Cloudy,0,2013-10-31 12:15:00
7:35 AM,41.0,39.2,93,29.68,9.0,Calm,Calm,-,N/A,,Overcast,0,2013-10-31 12:35:00
7:55 AM,41.0,41.0,100,29.68,7.0,West,4.6,-,N/A,,Overcast,270,2013-10-31 12:55:00
8:15 AM,41.0,39.2,93,29.69,7.0,WSW,3.5,-,N/A,,Overcast,250,2013-10-31 13:15:00
8:35 AM,41.0,41.0,100,29.69,7.0,Calm,Calm,-,N/A,,Overcast,0,2013-10-31 13:35:00
8:55 AM,41.0,41.0,100,29.69,7.0,West,5.8,-,N/A,,Scattered Clouds,270,2013-10-31 13:55:00
9:15 AM,42.8,41.0,93,29.68,6.0,West,6.9,-,N/A,,Clear,270,2013-10-31 14:15:00
9:35 AM,42.8,41.0,93,29.68,6.0,West,5.8,-,N/A,,Clear,260,2013-10-31 14:35:00
9:55 AM,42.8,41.0,93,29.67,5.0,West,5.8,-,N/A,,Partly Cloudy,270,2013-10-31 14:55:00
10:15 AM,42.8,41.0,93,29.66,6.0,WNW,5.8,-,N/A,,Partly Cloudy,300,2013-10-31 15:15:00
10:35 AM,42.8,41.0,93,29.66,7.0,West,6.9,-,N/A,,Clear,280,2013-10-31 15:35:00
10:55 AM,44.6,41.0,87,29.65,9.0,West,4.6,-,N/A,,Scattered Clouds,270,2013-10-31 15:55:00
11:15 AM,44.6,41.0,87,29.64,10.0,Calm,Calm,-,N/A,,Mostly Cloudy,0,2013-10-31 16:15:00
11:35 AM,46.4,41.0,81,29.63,10.0,Variable,4.6,-,N/A,,Partly Cloudy,0,2013-10-31 16:35:00
11:55 AM,48.2,42.8,82,29.61,10.0,Variable,5.8,-,N/A,,Clear,0,2013-10-31 16:55:00
12:15 PM,48.2,42.8,82,29.62,10.0,WNW,9.2,-,N/A,,Partly Cloudy,290,2013-10-31 17:15:00
12:35 PM,48.2,42.8,82,29.61,10.0,West,8.1,-,N/A,,Scattered Clouds,280,2013-10-31 17:35:00
12:55 PM,50.0,42.8,76,29.59,10.0,West,12.7,-,N/A,,Overcast,280,2013-10-31 17:55:00
1:15 PM,48.2,42.8,82,29.58,10.0,WNW,6.9,12.7,N/A,,Overcast,290,2013-10-31 18:15:00
1:35 PM,50.0,42.8,76,29.57,10.0,West,8.1,-,N/A,,Scattered Clouds,270,2013-10-31 18:35:00
1:55 PM,50.0,42.8,76,29.56,10.0,West,10.4,-,N/A,,Clear,270,2013-10-31 18:55:00
2:15 PM,50.0,44.6,82,29.55,10.0,West,8.1,-,N/A,,Clear,270,2013-10-31 19:15:00
2:35 PM,51.8,44.6,76,29.54,10.0,West,9.2,-,N/A,,Clear,260,2013-10-31 19:35:00
2:55 PM,53.6,44.6,72,29.54,10.0,SW,9.2,-,N/A,,Clear,230,2013-10-31 19:55:00
3:15 PM,53.6,44.6,72,29.53,10.0,WSW,10.4,-,N/A,,Partly Cloudy,240,2013-10-31 20:15:00
3:35 PM,55.4,44.6,67,29.53,10.0,WSW,10.4,18.4,N/A,,Partly Cloudy,250,2013-10-31 20:35:00
3:55 PM,55.4,44.6,67,29.54,10.0,WSW,13.8,-,N/A,,Mostly Cloudy,250,2013-10-31 20:55:00
4:15 PM,55.4,44.6,67,29.53,10.0,West,13.8,-,N/A,,Overcast,260,2013-10-31 21:15:00
4:35 PM,55.4,44.6,67,29.53,10.0,West,11.5,-,N/A,,Overcast,270,2013-10-31 21:35:00
4:55 PM,55.4,44.6,67,29.53,10.0,WSW,13.8,-,N/A,,Mostly Cloudy,250,2013-10-31 21:55:00
5:15 PM,55.4,44.6,67,29.53,10.0,WSW,8.1,-,N/A,,Scattered Clouds,240,2013-10-31 22:15:00
5:35 PM,55.4,44.6,67,29.53,10.0,WSW,5.8,-,N/A,,Mostly Cloudy,240,2013-10-31 22:35:00
5:55 PM,53.6,44.6,72,29.54,10.0,WSW,8.1,-,N/A,,Mostly Cloudy,250,2013-10-31 22:55:00
6:15 PM,51.8,44.6,76,29.54,10.0,West,8.1,-,N/A,,Scattered Clouds,260,2013-10-31 23:15:00
6:35 PM,51.8,44.6,76,29.54,10.0,WSW,5.8,-,N/A,,Mostly Cloudy,240,2013-10-31 23:35:00
6:55 PM,50.0,44.6,82,29.54,10.0,WSW,5.8,-,N/A,,Overcast,240,2013-10-31 23:55:00
7:15 PM,48.2,42.8,82,29.55,10.0,WSW,6.9,-,N/A,,Mostly Cloudy,240,2013-11-01 00:15:00
7:35 PM,48.2,41.0,76,29.55,10.0,West,11.5,-,N/A,,Partly Cloudy,260,2013-11-01 00:35:00
7:55 PM,50.0,39.2,66,29.56,10.0,West,10.4,-,N/A,,Clear,270,2013-11-01 00:55:00
8:15 PM,48.2,39.2,71,29.56,10.0,West,6.9,-,N/A,,Clear,260,2013-11-01 01:15:00
8:35 PM,44.6,39.2,81,29.56,10.0,West,6.9,-,N/A,,Clear,260,2013-11-01 01:35:00
8:55 PM,42.8,37.4,81,29.56,10.0,WSW,5.8,-,N/A,,Clear,240,2013-11-01 01:55:00
9:15 PM,41.0,37.4,87,29.56,10.0,WSW,5.8,-,N/A,,Clear,240,2013-11-01 02:15:00
9:35 PM,41.0,37.4,87,29.57,10.0,WSW,4.6,-,N/A,,Clear,240,2013-11-01 02:35:00
9:55 PM,39.2,35.6,87,29.57,-9999.0,WSW,4.6,-,N/A,,Unknown,250,2013-11-01 02:55:00
10:15 PM,39.2,35.6,87,29.58,10.0,WSW,5.8,-,N/A,,Clear,250,2013-11-01 03:15:00
10:35 PM,41.0,35.6,81,29.59,10.0,WSW,5.8,-,N/A,,Clear,240,2013-11-01 03:35:00
10:55 PM,39.2,35.6,87,29.60,10.0,West,4.6,-,N/A,,Clear,260,2013-11-01 03:55:00
11:15 PM,41.0,35.6,81,29.60,10.0,Calm,Calm,-,N/A,,Clear,0,2013-11-01 04:15:00
11:35 PM,41.0,35.6,81,29.60,10.0,SW,3.5,-,N/A,,Clear,230,2013-11-01 04:35:00
11:55 PM,41.0,35.6,81,29.60,10.0,WSW,5.8,-,N/A,,Clear,240,2013-11-01 04:55:00